Theta_e
354 354 354 359 358 353 356 356 353 348 349 346 344 348 352 354 348 352 346 346 346 350 352 353 351 352 352 352 352 352 352 351 349 351 350 351 351 350 349 347 348 349 352 352 348 348 351 352 348
355 354 360 366 354 355 357 355 356 349 346 347 348 351 354 359 351 348 347 345 346 350 351 352 351 351 352 351 350 351 351 351 351 352 350 351 352 351 351 349 347 350 349 348 351 352 351 351 351
357 361 368 359 353 355 359 352 348 345 343 344 351 351 352 354 348 346 347 347 347 350 351 351 349 349 352 352 352 352 352 351 351 351 347 348 347 351 345 346 349 351 348 349 352 350 351 350 350
356 361 346 352 355 351 353 348 345 345 345 345 347 353 351 350 347 350 349 349 347 350 351 350 347 351 352 351 352 351 350 352 352 349 347 349 352 349 350 350 351 351 347 343 350 350 352 351 346
355 352 352 353 353 351 349 351 345 343 346 346 346 352 354 351 351 348 349 349 349 349 351 351 349 350 352 352 352 352 352 352 348 350 352 350 351 352 350 350 352 344 348 351 344 349 351 351 344
351 347 353 355 352 351 349 348 343 346 348 347 348 351 354 352 351 347 347 348 347 348 350 349 350 350 353 353 353 353 352 349 348 349 350 350 346 348 348 351 349 351 345 347 350 348 344 346 345
355 352 352 352 353 351 351 342 345 346 348 349 347 353 353 350 351 348 347 348 350 347 348 348 349 352 352 351 352 353 349 351 351 352 349 351 350 351 348 353 350 349 352 350 350 349 344 345 343
355 351 351 350 352 352 348 344 344 345 348 346 346 355 357 351 350 349 348 350 350 349 347 350 355 354 354 355 350 350 351 352 351 351 351 349 349 348 352 345 348 351 350 351 351 351 348 346 344
349 353 354 350 351 350 348 347 343 344 346 345 345 349 350 349 350 349 348 350 352 351 350 351 353 354 355 352 350 353 351 351 347 349 350 349 350 349 351 347 344 349 351 350 350 351 348 349 345
352 354 352 347 348 349 348 348 346 347 346 350 352 352 350 349 349 348 348 349 350 350 351 351 353 355 352 349 350 351 352 351 353 354 353 348 349 344 349 347 344 348 351 351 350 352 352 351 348
349 348 347 346 347 347 349 348 348 349 348 348 353 354 350 349 349 348 348 347 348 349 350 351 352 353 350 351 350 350 351 351 351 351 351 351 346 347 351 349 351 348 348 347 349 350 350 352 345
341 340 343 349 348 348 350 347 349 348 348 344 349 350 349 348 347 346 347 347 347 348 349 349 349 350 352 352 350 349 349 350 349 350 345 344 345 346 344 347 346 348 348 347 347 351 350 350 347
339 337 343 348 346 348 349 349 351 349 345 346 348 350 349 347 346 346 346 344 345 347 347 348 349 349 352 351 350 348 348 348 348 348 347 346 347 345 344 345 347 346 347 347 350 351 351 349 349
336 343 347 348 347 348 350 351 350 346 347 349 350 350 349 349 348 349 350 347 343 343 344 348 350 351 350 348 345 347 346 347 348 348 347 347 348 349 349 348 348 349 348 348 348 349 349 351 350
338 346 346 348 347 348 348 353 353 346 348 351 350 350 349 349 349 350 350 350 344 342 342 345 348 349 347 341 341 347 345 346 346 345 345 347 348 349 350 349 350 350 349 349 347 346 345 349 350
343 343 347 346 346 343 346 353 347 345 350 351 351 350 350 350 348 349 349 350 346 343 344 345 344 344 347 346 340 346 347 348 346 345 347 348 348 349 350 349 346 349 349 347 345 347 348 347 348
341 347 345 342 345 345 346 349 349 343 348 351 351 350 350 350 349 348 348 349 349 345 347 345 344 343 344 340 339 341 348 348 349 348 348 349 349 349 348 347 347 350 349 349 350 349 347 348 347
340 341 338 338 338 345 346 346 348 344 344 347 347 349 351 350 349 348 348 348 350 347 348 348 344 345 342 342 341 346 348 349 349 349 349 348 348 349 348 346 349 349 349 351 352 351 346 345 344
336 337 337 336 336 342 345 345 344 348 345 345 345 345 345 348 346 345 347 347 349 348 348 350 348 346 346 347 348 348 349 351 351 349 349 349 349 349 346 349 348 349 348 346 347 346 343 342 340
335 337 337 336 339 342 343 344 342 348 349 347 346 345 345 344 344 343 343 344 347 348 348 349 350 349 345 349 349 350 351 351 351 347 350 349 350 345 345 349 350 344 345 341 338 337 342 340 338
334 336 335 336 335 340 343 344 345 344 347 348 347 346 345 345 345 344 342 342 343 346 347 347 346 349 348 348 350 348 349 348 349 349 351 349 346 348 350 349 348 344 341 341 335 336 338 340 339
337 331 332 333 333 332 340 338 343 342 347 348 348 348 347 346 345 345 344 343 343 344 346 347 347 348 346 348 350 350 351 352 352 353 351 350 348 349 351 350 345 341 340 335 338 337 336 336 339
335 330 330 330 332 334 339 340 336 340 340 341 346 347 347 346 346 346 344 344 344 344 345 346 348 348 346 345 348 351 352 351 353 353 351 349 349 352 351 346 341 340 340 337 339 338 335 336 335
325 325 323 326 333 333 335 339 333 337 338 340 345 347 347 347 346 346 344 344 344 344 345 346 348 347 348 345 347 348 352 352 353 354 354 353 353 350 350 345 341 338 338 341 342 337 335 334 333
324 324 326 329 329 330 327 338 335 333 331 335 342 341 347 347 346 347 345 344 345 345 345 346 348 348 348 347 348 349 350 351 350 352 355 352 352 349 348 345 341 341 341 341 340 337 335 334 333
322 323 327 330 326 325 323 329 328 331 339 342 343 342 346 349 347 347 345 344 345 345 345 346 348 349 349 350 350 350 350 351 351 348 351 350 350 349 347 344 341 340 341 342 340 338 335 332 332
320 323 320 322 319 324 324 328 328 339 344 344 344 344 347 349 349 348 346 344 344 345 346 346 348 349 347 350 350 349 348 348 348 350 351 350 351 348 345 342 342 340 342 341 338 336 333 330 328
321 318 323 323 326 325 326 329 331 341 341 342 345 344 345 344 344 345 346 344 343 345 345 346 347 348 346 349 349 350 346 348 347 348 350 351 349 347 343 343 340 343 342 340 337 334 330 327 325
320 322 319 322 323 325 325 327 329 335 337 338 341 343 343 343 343 345 345 344 344 345 345 346 347 348 348 349 349 350 351 351 346 348 351 350 347 345 343 342 341 342 341 338 336 332 328 321 317
319 323 323 324 326 323 325 326 334 338 337 337 339 338 338 340 341 344 341 342 344 345 347 348 347 347 348 350 349 344 347 349 350 352 351 347 346 343 343 343 342 341 340 338 333 328 320 318 321
Wind_Speed
13 10 6 1 1 2 4 5 2 10 5 2 10 2 4 6 2 6 14 14 21 19 17 16 19 18 17 18 18 16 17 16 14 11 11 9 8 9 9 8 7 7 8 9 8 7 6 8 6
13 9 1 1 3 6 4 3 8 7 8 13 10 6 5 4 4 11 14 22 21 20 18 17 18 18 16 17 17 15 15 13 10 9 9 7 8 8 7 6 6 6 7 10 8 8 9 8 8
11 2 1 2 2 5 4 5 12 10 6 4 5 8 3 3 8 20 14 23 21 19 18 18 17 17 15 16 14 14 12 11 9 7 6 6 7 7 5 6 7 7 8 8 8 8 9 8 8
5 3 2 6 8 5 4 7 10 7 9 7 7 8 5 3 14 7 25 23 21 20 18 18 17 16 14 14 13 13 11 9 8 6 5 5 5 7 7 6 7 9 7 6 7 7 7 7 7
2 1 4 4 5 3 4 7 6 3 6 6 4 6 10 4 7 22 23 21 21 20 18 17 17 16 14 13 11 11 9 7 7 7 5 5 5 6 5 6 5 6 7 6 5 6 6 6 6
1 1 3 4 4 3 4 7 4 7 9 12 12 12 5 5 16 22 21 20 19 19 17 16 17 15 12 11 10 9 9 7 7 7 6 5 4 4 5 4 5 5 5 4 3 3 4 3 5
2 2 2 2 2 1 4 7 6 7 10 8 11 7 4 9 17 19 18 18 17 16 16 15 14 13 12 11 9 9 8 7 6 6 6 4 4 3 3 3 2 2 3 2 2 2 3 4 4
1 1 1 2 2 1 8 5 9 9 6 12 6 6 7 13 20 19 17 16 15 15 15 14 13 12 10 10 10 9 8 7 6 5 4 4 3 3 0 1 1 0 1 1 2 2 2 3 5
1 0 1 1 2 1 11 5 5 5 13 3 3 6 15 24 21 20 18 16 15 14 15 13 13 12 10 8 8 8 8 6 6 4 3 2 2 2 2 3 2 1 3 5 4 4 4 4 6
1 1 3 1 4 3 11 8 10 5 12 4 10 16 25 23 22 22 22 20 18 17 16 15 13 12 11 9 9 8 7 6 5 4 5 5 3 3 3 4 4 5 5 6 5 6 6 6 7
2 2 2 3 5 7 11 8 5 12 7 8 16 20 22 22 20 19 20 20 22 19 17 17 16 14 13 11 9 8 8 6 5 7 5 4 4 3 4 5 6 8 9 8 9 7 7 7 9
3 5 4 3 8 8 8 6 6 8 1 10 20 21 22 19 21 21 19 18 17 18 19 18 18 16 15 12 10 9 9 8 7 6 6 5 3 5 6 7 7 9 10 11 12 10 10 9 13
3 4 1 5 10 10 10 5 1 7 7 18 18 20 19 18 19 17 16 16 17 19 19 19 19 18 15 14 11 10 9 8 7 6 6 6 5 6 7 8 10 11 10 10 9 9 11 12 12
5 2 5 5 9 8 8 4 4 5 14 18 21 20 17 17 21 18 17 18 19 19 20 18 19 18 18 17 16 12 10 8 7 7 7 7 7 8 9 9 10 7 7 7 5 7 8 8 7
2 5 7 5 4 3 7 3 7 12 16 18 20 18 16 16 18 22 21 20 20 20 18 20 19 18 20 19 16 12 11 9 9 9 10 10 9 9 10 9 9 5 6 6 5 5 6 5 6
1 3 2 1 4 4 5 6 3 16 17 17 18 18 17 17 23 22 21 20 19 19 20 19 18 18 18 18 17 12 9 8 9 11 11 12 11 10 9 7 6 5 5 4 3 3 4 5 6
3 6 2 2 5 2 7 6 5 16 16 16 16 18 18 18 20 23 24 23 21 22 20 21 21 19 19 20 17 14 11 10 9 9 8 6 7 7 7 8 5 5 3 4 3 4 5 6 7
4 4 1 3 1 5 6 10 6 15 17 18 17 17 18 18 22 28 27 25 22 22 21 19 20 20 20 18 18 14 12 10 8 7 6 5 5 5 6 5 3 4 3 4 4 4 5 4 7
6 2 3 5 6 4 5 9 7 14 16 17 18 18 19 20 25 25 26 24 22 21 22 22 21 23 20 17 14 13 13 10 9 8 8 6 6 5 5 3 2 2 2 3 3 3 3 4 5
5 3 5 6 3 4 4 9 8 17 23 22 21 20 21 19 17 21 24 23 25 25 25 24 25 25 27 19 15 11 12 10 9 12 9 8 6 5 5 4 2 1 1 1 3 3 1 3 7
4 5 1 6 9 2 5 7 3 6 13 17 19 19 21 21 21 19 23 26 25 25 28 30 34 29 28 25 16 13 11 11 10 11 10 7 4 3 3 5 4 3 2 1 3 4 2 1 4
10 4 4 4 4 4 5 5 8 2 9 13 19 23 23 22 19 19 21 23 27 30 25 27 28 28 29 28 20 20 16 13 11 10 11 8 4 5 6 7 5 5 3 4 4 5 5 4 1
5 3 1 1 4 4 1 4 9 4 13 8 15 20 22 23 22 21 21 27 29 24 26 27 26 26 27 28 27 23 18 12 7 10 9 7 8 7 7 8 6 6 5 4 4 5 6 5 4
9 4 6 3 3 4 0 5 12 5 8 7 2 9 17 20 22 20 25 23 23 22 22 22 24 28 26 28 28 29 22 16 10 10 10 11 10 11 11 9 6 5 5 4 3 5 6 7 6
5 6 5 6 5 6 2 5 11 12 8 13 13 8 11 16 19 19 19 23 22 24 24 23 24 27 27 28 28 28 26 19 15 12 11 10 10 13 15 12 10 6 5 5 3 4 4 5 5
9 8 4 6 5 6 2 5 8 2 11 8 7 8 7 14 15 18 19 23 24 25 25 26 25 25 26 24 26 25 23 16 15 14 12 10 11 13 17 14 11 9 7 5 4 3 4 5 5
6 5 3 4 1 3 2 6 12 4 7 6 3 2 4 8 10 13 15 21 22 24 27 29 25 24 28 23 22 22 23 22 17 14 14 12 11 13 14 17 13 11 8 7 6 4 3 4 5
3 10 4 1 2 4 3 5 5 6 9 7 3 3 2 3 6 8 10 17 21 25 26 25 24 27 30 21 19 18 20 20 21 19 17 14 13 17 18 17 18 11 9 8 6 4 4 4 4
5 4 5 3 1 3 3 3 1 9 11 12 7 3 2 3 5 6 8 16 21 20 21 22 21 22 20 18 18 15 16 19 23 22 17 15 16 17 21 19 19 18 13 10 7 6 5 5 7
2 3 7 4 4 1 2 6 4 6 9 7 10 8 3 5 6 5 8 10 15 19 20 21 21 22 22 21 24 25 17 17 18 19 18 18 21 19 20 20 20 19 17 12 9 7 6 8 9
Wind_Direction
136 143 138 231 77 63 52 50 65 118 134 75 147 178 118 44 58 95 141 143 139 138 135 134 136 133 131 131 129 132 129 131 127 122 116 123 125 116 117 113 115 113 112 103 101 107 110 137 140
143 142 187 291 57 64 57 40 91 69 95 120 99 103 61 82 69 123 134 149 144 138 138 138 138 139 141 133 135 136 136 135 129 131 120 123 117 107 111 118 115 114 110 110 105 111 112 123 124
143 178 324 65 42 56 66 66 117 111 84 117 109 57 58 63 121 140 147 150 146 143 142 145 146 145 145 142 143 144 141 138 138 132 126 127 118 127 105 120 110 111 99 107 110 112 116 118 120
162 179 157 52 50 58 67 123 136 122 86 68 104 75 83 125 137 157 148 151 149 149 145 149 151 150 147 145 155 144 139 143 141 144 145 128 120 113 114 113 104 106 106 109 123 107 116 120 126
142 216 43 43 36 40 100 133 153 89 92 76 95 93 106 124 136 145 150 155 153 152 151 155 156 156 159 163 155 143 148 159 148 144 155 130 120 122 113 119 109 109 124 117 116 122 124 121 122
231 249 22 22 22 30 87 141 121 104 103 114 103 107 114 129 142 152 154 156 158 157 157 159 165 164 164 162 158 153 158 170 165 161 162 141 149 132 134 121 122 110 105 117 125 124 152 143 150
7 21 31 18 11 62 132 146 124 113 126 109 129 107 113 151 154 155 156 157 157 161 163 160 166 169 170 163 166 168 167 167 174 168 165 163 171 157 152 139 115 117 128 137 151 145 167 195 201
45 321 56 8 348 13 142 134 127 122 97 127 125 163 168 169 157 155 157 161 163 167 168 169 171 171 171 175 184 178 175 181 189 173 163 191 183 203 172 216 178 341 319 260 250 235 206 214 230
168 328 272 262 201 123 155 131 146 106 136 96 29 143 139 152 156 155 159 168 173 176 177 180 179 181 182 182 188 188 197 191 194 173 195 225 218 244 255 247 290 263 274 273 264 273 264 256 261
231 212 222 233 179 188 168 149 141 130 150 76 89 110 134 152 164 167 172 178 186 185 185 185 186 183 189 190 193 191 191 198 197 193 202 228 233 244 281 291 299 293 279 280 283 272 272 272 258
186 271 190 236 206 149 165 145 136 137 190 180 158 146 151 161 175 180 184 187 188 187 188 191 193 193 192 196 198 197 199 202 210 213 213 233 245 263 289 297 300 291 296 282 270 274 269 263 265
298 277 225 168 146 135 162 146 159 169 146 171 161 157 158 169 180 186 190 190 192 193 196 196 195 196 198 201 204 208 203 210 211 217 219 233 260 276 283 289 300 295 290 287 276 274 271 271 266
249 310 332 136 120 116 132 169 159 192 120 138 151 158 169 179 181 186 193 196 197 201 201 202 196 196 201 208 211 213 213 211 213 224 230 238 261 274 280 296 300 291 310 290 279 274 283 282 285
316 302 76 98 133 137 146 158 177 152 138 141 156 169 174 185 189 188 197 198 200 205 208 204 207 202 199 209 215 214 215 219 222 227 238 244 259 276 293 292 305 312 314 310 308 281 281 292 287
9 99 80 87 114 105 136 176 229 145 154 154 163 174 181 195 195 204 203 205 200 207 209 209 209 209 209 208 215 218 221 224 235 242 252 255 263 279 291 294 304 297 300 306 309 314 296 297 291
126 54 73 191 130 141 189 268 209 163 164 166 173 180 186 195 207 212 216 212 208 206 208 210 209 210 215 215 213 220 226 227 246 262 265 263 264 274 285 298 300 313 291 296 292 335 312 319 298
40 123 77 332 203 162 215 270 174 175 176 176 184 186 193 197 208 219 221 219 211 210 209 207 207 209 215 218 219 226 239 245 258 266 269 252 246 255 280 299 297 307 286 310 283 324 331 322 320
123 132 255 308 39 197 236 261 178 188 190 188 188 196 199 203 210 210 218 220 215 214 215 211 207 211 213 215 219 223 235 241 238 244 249 225 219 248 279 290 285 316 311 322 301 314 338 340 330
120 130 282 265 294 268 251 263 211 195 210 204 199 200 204 212 211 210 214 218 217 215 213 213 208 211 210 207 208 220 224 218 230 241 252 230 214 246 268 263 281 309 8 13 343 319 353 1 354
152 183 261 290 136 283 305 272 263 193 209 214 207 203 209 212 212 213 215 214 215 215 215 213 214 214 216 213 210 211 210 222 226 244 241 226 216 251 230 234 252 200 53 2 340 319 291 19 14
182 242 177 300 330 113 288 279 232 202 217 223 225 222 214 210 207 207 210 212 215 215 213 215 220 216 217 215 211 219 224 232 224 223 219 214 232 232 228 213 207 228 164 77 56 43 40 319 39
228 207 229 271 314 302 350 308 300 221 228 216 215 219 219 216 213 213 208 209 211 219 215 216 217 216 218 219 210 210 218 226 225 211 215 211 210 205 196 187 197 177 147 117 95 72 61 52 329
237 124 53 299 261 282 165 262 284 314 302 286 222 221 219 218 214 210 207 210 212 213 211 213 213 215 214 218 215 212 214 221 211 193 189 183 178 180 186 181 172 171 145 134 109 87 76 56 47
141 100 61 72 192 231 6 254 289 281 278 298 12 242 219 215 216 216 216 213 212 211 210 206 205 214 213 213 214 216 208 206 200 192 182 175 175 183 178 177 178 177 152 128 96 77 57 50 52
179 160 203 216 220 269 84 223 265 278 272 291 315 298 217 208 210 212 208 208 208 203 205 204 204 204 213 212 212 214 218 214 217 209 195 197 183 176 177 175 170 170 169 158 131 99 76 60 54
175 218 219 241 256 295 144 237 259 265 307 304 296 275 214 201 206 209 207 205 205 204 200 202 201 203 211 212 214 216 220 217 222 224 220 214 206 188 175 166 163 171 178 173 156 114 101 94 78
152 189 48 118 101 260 265 265 279 298 291 281 329 244 200 198 206 213 208 209 210 205 201 205 198 199 214 208 213 215 223 217 219 224 231 231 205 184 183 162 161 164 169 167 163 140 110 86 85
240 140 157 156 228 249 220 276 262 331 344 341 308 319 19 253 235 229 210 212 211 209 212 206 201 197 211 200 205 208 219 218 217 223 228 219 199 178 176 166 154 164 172 169 165 142 130 106 95
144 170 69 117 299 263 258 256 260 295 322 335 359 7 343 284 255 238 219 215 216 213 207 208 196 194 195 188 197 195 204 202 209 219 211 200 182 180 178 177 166 163 167 168 175 163 150 138 125
66 156 189 231 191 224 320 278 70 351 323 346 18 33 8 300 280 223 210 215 210 209 202 202 189 192 191 179 188 201 191 211 207 208 203 185 179 179 181 183 182 172 164 167 176 163 155 138 127